Main page
METAR-TAF:

METAR-TAF

Airports :

Moundou Airport

Moundou, Chad

latitude: 08-37N, longitude: 016-04E, elevation: 428 m

Current weather observation

The report was made 2 hours and 15 minutes ago, at 07:00 UTC
Calm wind
Temperature 31°C
Humidity 55%
Pressure 1009 hPa
Visibility: 8000 m
Few clouds at a height of 4000 ft

METAR: FTTD 210700Z 00000KT 8000 NSC FEW040 31/21 Q1009

Time: 10:15 (09:15 UTC)


TAF: missing

Weather observations and forecasts of more than 4000 airports (METAR and TAF reports).

The available stations are represented by yellow and red dots on the map.

Hover mouse over dot to see the name of the station.

Then click to see weather observations and forecasts.

To change the map : click on the green buttons with a black cross to zoom in, on the green button with a dash to zoom out, or on the green arrows for adjacent maps.


METAR-TAF: